Voltar ao catálogo

BREEZE-M DEB

AtivoHEO
NORAD 32035·DEBRIS·🇷🇺 Russia

Lançado Feb 28, 2006 de Baikonur Cosmodrome

Loading…

Próximas Passagens (próximas 24 horas)

TLE

AtualizadoSource: Space-Track

Época: Sep 14, 2026, 06:24 UTC

1 32035U 06006N   26257.26667251  .00006284  00000-0  16447-1 0  9995
2 32035  50.9297 207.7951 4678155  86.1244 324.2203  5.80390944  3145

Acompanhe BREEZE-M DEB em tempo real com AllMySat

Download on the App Store